Fairbanks, AK

4:17 PM AKST on December 06, 2019 (GMT -0900)
Fairbanks International

Weather History for PAFA - May, 2019

Change the Weather History Date:

Sunday, May 12, 2019

  Actual Average Record
Temperature  
Mean Temperature 51 °F 48 °F  
Max Temperature 60 °F 60 °F 81 °F (1942)
Min Temperature 41 °F 36 °F 20 °F (1917)
Degree Days  
Heating Degree Days 14 17  
Month to date heating degree days 211 235  
Since 1 July heating degree days 11473 13259  
Cooling Degree Days 0 0  
Month to date cooling degree days 0 0  
Year to date cooling degree days 0 0  
Growing Degree Days 1 (Base 50)    
Moisture  
Dew Point 29 °F    
Average Humidity 43    
Maximum Humidity 76    
Minimum Humidity 14    
Precipitation  
Precipitation 0.00 in 0.02 in 0.78 in (1992)
Month to date precipitation 0.22 0.20  
Year to date precipitation 2.70 1.76  
Snow  
Snow 0.00 in 0.10 in 9.40 in (1992)
Month to date snowfall T 0.6  
Since 1 July snowfall 57.5 64.7  
Snow Depth 0.00 in    
Sea Level Pressure  
Sea Level Pressure 29.99 in    
Wind  
Wind Speed 4 mph (SW)    
Max Wind Speed 9 mph    
Max Gust Speed -    
Visibility 10 miles    
Events      
T = Trace of Precipitation, MM = Missing Value Source: NWS Daily Summary

Daily Weather History Graph

Daily Weather History Graph

Search for Another Location

Airport or City:

Astronomy

May. 12, 2019 Rise Set
Actual Time 4:39 AM AKDT 10:58 PM AKDT
Civil Twilight 2:57 AM AKDT 12:45 AM AKDT
Nautical Twilight Sun does not rise Sun does not rise
Astronomical Twilight Sun does not rise Sun does not rise
Moon 12:49 PM AKDT (5/12) 4:54 AM AKDT (5/12)
Length of Visible Light 21h 48m
Length of Day
18h 19m
First Quarter, 59% of the Moon is Illuminated
May 12
First Quarter
May 18
Full
May 26
Last Quarter
Jun 3
New
Jun 9
First Quarter

Hourly Weather History & Observations

Time (AKDT) Temp. Windchill Dew Point Humidity Pressure Visibility Wind Dir Wind Speed Gust Speed Precip Events Conditions
12:53 AM 46.9 °F - 37.0 °F 68% 29.93 in 10.0 mi South 5.8 mph - 0.00 in   Mostly Cloudy
1:53 AM 46.0 °F - 36.0 °F 68% 29.94 in 10.0 mi Calm Calm - N/A   Mostly Cloudy
2:53 AM 45.0 °F - 35.1 °F 68% 29.96 in 10.0 mi Calm Calm - N/A   Mostly Cloudy
3:53 AM 44.1 °F 40.1 °F 34.0 °F 68% 29.99 in 10.0 mi South 6.9 mph - N/A   Mostly Cloudy
4:53 AM 45.0 °F - 35.1 °F 68% 29.99 in 10.0 mi Calm Calm - N/A   Mostly Cloudy
5:53 AM 42.1 °F - 35.1 °F 76% 30.01 in 10.0 mi Calm Calm - N/A   Scattered Clouds
6:53 AM 43.0 °F 41.3 °F 34.0 °F 71% 30.02 in 10.0 mi SSE 3.5 mph - N/A   Mostly Cloudy
7:53 AM 46.0 °F - 34.0 °F 63% 30.04 in 10.0 mi Calm Calm - N/A   Mostly Cloudy
8:53 AM 48.9 °F - 30.0 °F 48% 30.05 in 10.0 mi Variable 4.6 mph - N/A   Mostly Cloudy
9:53 AM 51.1 °F - 26.1 °F 38% 30.05 in 10.0 mi Variable 5.8 mph - N/A   Scattered Clouds
10:53 AM 53.1 °F - 26.1 °F 35% 30.05 in 10.0 mi WSW 5.8 mph - N/A   Scattered Clouds
11:53 AM 55.0 °F - 25.0 °F 31% 30.04 in 10.0 mi Variable 4.6 mph - N/A   Scattered Clouds
12:53 PM 55.9 °F - 25.0 °F 30% 30.03 in 10.0 mi West 4.6 mph - N/A   Mostly Cloudy
1:53 PM 55.4 °F - 24.8 °F 31% 30.00 in 10.0 mi Variable 3.5 mph - N/A   Scattered Clouds
2:53 PM 57.9 °F - 23.0 °F 26% 30.01 in 10.0 mi South 8.1 mph - N/A   Mostly Cloudy
3:53 PM 59.0 °F - 23.0 °F 25% 30.00 in 10.0 mi WSW 8.1 mph - N/A   Mostly Cloudy
4:53 PM 57.9 °F - 23.0 °F 26% 29.98 in 10.0 mi WSW 9.2 mph - N/A   Mostly Cloudy
5:53 PM 59.0 °F - 24.1 °F 26% 29.98 in 10.0 mi SW 4.6 mph - N/A   Mostly Cloudy
6:53 PM 57.9 °F - 23.0 °F 26% 29.97 in 10.0 mi Variable 5.8 mph - N/A   Mostly Cloudy
7:53 PM 57.9 °F - 24.1 °F 27% 29.96 in 10.0 mi WSW 4.6 mph - N/A   Mostly Cloudy
8:53 PM 57.0 °F - 23.0 °F 27% 29.95 in 10.0 mi West 3.5 mph - N/A   Mostly Cloudy
9:53 PM 54.0 °F - 28.0 °F 37% 29.96 in 10.0 mi NNW 5.8 mph - N/A   Mostly Cloudy
10:53 PM 52.0 °F - 30.0 °F 43% 29.96 in 10.0 mi West 4.6 mph - N/A   Mostly Cloudy
11:53 PM 48.0 °F - 30.9 °F 52% 29.96 in 10.0 mi WSW 3.5 mph - N/A   Mostly Cloudy